TimeAKST,TemperatureF,Dew PointF,Humidity,Sea Level PressureIn,VisibilityMPH,Wind Direction,Wind SpeedMPH,Gust SpeedMPH,PrecipitationIn,Events,Conditions,WindDirDegrees,DateUTC
12:54 AM,28.0,23.0,81,30.06,10.0,Calm,Calm,-,N/A,,Clear,0,2013-03-08 09:54:00
1:54 AM,27.0,21.9,81,30.06,10.0,Calm,Calm,-,N/A,,Clear,0,2013-03-08 10:54:00
2:54 AM,27.0,21.9,81,30.06,10.0,WNW,4.6,-,N/A,,Clear,290,2013-03-08 11:54:00
3:54 AM,26.1,21.9,84,30.06,10.0,WNW,10.4,-,N/A,,Clear,290,2013-03-08 12:54:00
4:54 AM,25.0,21.9,88,30.06,10.0,WNW,9.2,-,N/A,,Clear,290,2013-03-08 13:54:00
5:54 AM,25.0,21.0,85,30.06,10.0,WNW,8.1,-,N/A,,Clear,290,2013-03-08 14:54:00
6:54 AM,24.1,21.0,88,30.07,10.0,WNW,5.8,-,N/A,,Clear,300,2013-03-08 15:54:00
7:54 AM,25.0,21.0,85,30.07,10.0,West,9.2,-,N/A,,Scattered Clouds,280,2013-03-08 16:54:00
8:54 AM,27.0,21.9,81,30.08,10.0,West,6.9,-,N/A,,Clear,280,2013-03-08 17:54:00
9:54 AM,28.9,23.0,78,30.08,10.0,West,6.9,-,N/A,,Scattered Clouds,280,2013-03-08 18:54:00
10:18 AM,30.2,24.8,80,30.07,10.0,Calm,Calm,-,N/A,,Mostly Cloudy,0,2013-03-08 19:18:00
10:54 AM,32.0,24.1,73,30.08,10.0,WNW,3.5,-,N/A,,Mostly Cloudy,290,2013-03-08 19:54:00
11:15 AM,32.0,24.8,75,30.07,10.0,WNW,3.5,-,N/A,,Scattered Clouds,300,2013-03-08 20:15:00
11:54 AM,37.0,26.1,65,30.07,10.0,SE,5.8,-,N/A,,Scattered Clouds,130,2013-03-08 20:54:00
12:54 PM,37.9,27.0,65,30.06,10.0,ESE,6.9,-,N/A,,Overcast,120,2013-03-08 21:54:00
1:54 PM,39.0,28.9,67,30.06,10.0,SE,13.8,20.7,N/A,,Mostly Cloudy,130,2013-03-08 22:54:00
2:54 PM,39.0,28.0,65,30.07,10.0,East,11.5,20.7,N/A,,Overcast,90,2013-03-08 23:54:00
3:54 PM,39.0,28.0,65,30.07,10.0,East,10.4,20.7,N/A,,Overcast,90,2013-03-09 00:54:00
4:54 PM,39.0,27.0,62,30.07,10.0,East,9.2,-,N/A,,Overcast,100,2013-03-09 01:54:00
5:54 PM,37.9,28.0,68,30.08,10.0,East,11.5,17.3,N/A,,Overcast,90,2013-03-09 02:54:00
6:54 PM,37.9,28.9,70,30.09,10.0,East,13.8,20.7,N/A,,Overcast,80,2013-03-09 03:54:00
7:54 PM,37.0,30.0,76,30.11,10.0,East,12.7,19.6,N/A,,Overcast,90,2013-03-09 04:54:00
8:47 PM,37.4,30.2,75,30.10,10.0,East,10.4,20.7,N/A,,Overcast,100,2013-03-09 05:47:00
8:54 PM,37.0,30.9,79,30.11,10.0,East,8.1,-,N/A,,Overcast,90,2013-03-09 05:54:00
9:02 PM,37.4,30.2,75,30.10,10.0,East,8.1,-,N/A,,Overcast,80,2013-03-09 06:02:00
9:34 PM,37.4,32.0,81,30.10,10.0,East,8.1,-,N/A,,Overcast,100,2013-03-09 06:34:00
9:54 PM,37.0,32.0,82,30.11,10.0,ENE,12.7,17.3,N/A,,Overcast,70,2013-03-09 06:54:00
10:54 PM,37.0,32.0,82,30.11,10.0,ESE,8.1,-,N/A,,Overcast,120,2013-03-09 07:54:00
11:54 PM,37.0,32.0,82,30.11,10.0,SE,6.9,-,N/A,,Overcast,130,2013-03-09 08:54:00